Location: Aldridge
(37.5584°N, 89.4701°W)
Time: 15:20:25
(UTC+00:00)

Daily predictions for brighter satellites

Satellite Brightness Start Highest point End
(mag) Time Altitude Azimuth Time Altitude Azimuth Time Altitude Azimuth
Cosmos 1300 4.0 12:00:45 10° SSE 12:04:20 42° E 12:07:58 10° NNE
Cosmos 2228 4.5 12:01:08 10° SSE 12:05:07 40° E 12:09:06 10° NNE
Cosmos 1814 Rocket 4.0 12:00:44 10° SSW 12:05:45 54° WNW 12:10:48 10° N
Cosmos 1626 Rocket 3.5 12:01:32 10° NNW 12:05:59 68° W 12:10:23 10° S
Cosmos 1937 Rocket 3.7 12:02:08 10° NNW 12:07:12 48° WSW 12:12:10 10° S
Cosmos 372 Rocket 4.0 12:03:14 10° NNW 12:08:31 86° ENE 12:13:44 10° SSE
SL-19 R/B 4.1 12:05:30 10° NNE 12:09:25 85° ESE 12:12:48 10° SSW
USA 276 4.4 12:09:49 11° WSW 12:10:18 12° SW 12:11:27 10° SSW
GEOS 3 Rocket 3.8 12:05:03 10° SSE 12:10:18 61° WSW 12:15:40 10° NW
Cosmos 1455 Rocket 4.4 12:07:19 10° WSW 12:10:19 18° WNW 12:13:20 10° NNW
Envisat 3.0 12:07:16 10° N 12:12:14 56° WNW 12:17:11 10° SSW
ERS-2 3.3 12:10:58 10° SSW 12:13:56 23° W 12:16:23 13° NW
Cosmos 1689 Rocket 3.0 12:14:25 10° SSW 12:16:56 26° W 12:19:12 12° NW
ATLAS CENTAUR R/B 0.9 12:13:53 10° SW 12:17:37 76° WNW 12:21:17 10° NNE
NOAA 6 4.0 12:13:14 10° N 12:18:24 70° WNW 12:23:33 10° SSW
Cosmos 1953 3.5 12:16:00 10° SW 12:19:04 21° WNW 12:22:09 10° NNW
H-2A R/B 2.6 12:16:18 10° NNE 12:20:49 87° WNW 12:25:18 10° SSW
COSMOS 2428 4.3 12:20:32 12° WNW 12:21:57 13° NW 12:24:31 10° NNW
BREEZE M DEB (TANK) 1.8 12:20:56 16° WNW 12:22:18 37° SW 12:24:37 10° SSE
Cosmos 1908 4.0 12:19:22 10° SW 12:22:41 28° WNW 12:26:00 10° NNW
CORIOLIS 4.5 12:18:28 10° NNE 12:23:49 72° ESE 12:29:08 10° S
Cosmos 44 Rocket 3.8 12:22:38 10° NW 12:27:39 48° WSW 12:32:36 10° S
Cosmos 1758 Rocket 3.7 12:23:48 10° N 12:28:19 81° E 12:32:46 10° S
NOAA 11 4.4 12:26:53 10° NNE 12:32:23 81° ESE 12:37:48 10° S
USA 307 2.8 12:30:09 10° SW 12:34:20 68° NW 12:38:33 10° NE
Okean O Rocket 1.6 12:29:57 10° NNE 12:34:20 89° ESE 12:38:40 10° SSW
Cosmos 1315 Rocket 2.7 12:35:13 10° S 12:39:08 81° W 12:43:03 10° N
CZ-2C R/B 1.7 12:35:22 10° WSW 12:39:23 57° S 12:43:08 10° E
Cosmos 1092 Rocket 4.1 12:33:31 10° NNW 12:39:28 53° W 12:45:25 10° SSW
MOS 1-B 4.4 12:35:01 10° N 12:40:38 56° WNW 12:46:14 10° SSW
BREEZE-M (TANK) 1.6 12:40:28 10° NW 12:42:22 54° NE 12:44:46 10° ESE
USA 308 3.0 12:38:56 10° WSW 12:43:05 57° NW 12:47:15 10° NE
Cosmos 1726 Rocket 3.7 12:38:50 10° S 12:43:08 80° E 12:47:27 10° N
USA 305 3.0 12:39:24 10° WSW 12:43:33 53° NW 12:47:42 10° NE
Cosmos 2279 Rocket 4.0 12:39:47 10° S 12:46:00 85° W 12:52:18 10° N
Cosmos 1602 Rocket 4.4 12:42:16 10° NNW 12:46:14 32° W 12:50:12 10° SSW
ATLAS 3B R/B 3.3 23:26:56 10° NW 23:33:55 69° WSW 23:41:10 10° SSE
BREEZE-M DEB (TANK) 2.1 23:33:23 10° WNW 23:36:15 78° SSW 23:40:02 10° SE
Cosmos 1300 2.7 23:32:35 10° N 23:36:24 88° ENE 23:40:13 10° S
FengYun 1-2 T 4.2 23:34:08 10° SSE 23:39:39 76° ENE 23:45:15 10° N
YAOGAN 1 4.1 23:39:58 10° ESE 23:42:35 16° ENE 23:45:12 10° NNE
Cosmos 1892 Rocket 3.5 23:38:32 10° S 23:42:49 67° E 23:47:08 10° NNE
Cosmos 2279 Rocket 4.0 23:37:25 10° N 23:43:42 73° E 23:49:54 10° SSE
ERS-2 3.3 23:41:02 10° NE 23:44:03 24° E 23:47:02 10° SSE
CZ-4B R/B 1.5 23:40:54 10° NNE 23:44:10 50° E 23:47:21 10° S
AQUARIUS 4.4 23:39:50 10° S 23:44:19 76° WSW 23:48:49 10° NNW
Cosmos 1606 Rocket 3.5 23:40:10 10° N 23:44:35 83° E 23:49:01 10° S
CORIOLIS 4.3 23:39:40 10° SSE 23:45:04 83° WSW 23:50:29 10° NNW
H-2A R/B 2.8 23:40:59 10° N 23:45:19 56° WNW 23:49:32 10° SSW
BREEZE-M DEB (TANK) 3.7 23:43:09 10° WNW 23:45:53 64° SW 23:54:17 10° SE
SMAP 3.8 23:44:57 10° S 23:49:30 58° W 23:54:06 10° NNW
Cosmos 2263 Rocket 4.1 23:44:55 10° WSW 23:49:45 28° WNW 23:54:36 10° N
Cosmos 2228 3.3 23:46:41 10° NNW 23:50:57 73° W 23:55:13 10° S
